sat.trackr.live / text

‹ back to catalog

GRUS-1B

NORAD 47934 · 2021-022C

PAYLOAD ACTIVE UNKNOWN

§ Identity

Operator
Country
JPN
Launch date
2021-03-22
Launch site
TYMSC
Launch vehicle
Mass (kg)
RCS (m²)

External: N2YO · Heavens-Above · Gunter

§ Orbital elements

Epoch: 2026-09-04T03:44:08.483136Z

Period
96.07 min
Inclination
97.5245°
Eccentricity
0.0017423
Mean motion
14.98874231 rev/d
Perigee alt
558.3 km
Apogee alt
582.5 km
Semi-major
6,948.5 km
B*
1.2679e-4
RAAN
127.6844°
Arg perigee
57.3585°
Mean anomaly
302.9317°
Rev number
29,772

§ Raw data

GRUS-1B1 47934U 21022C   26247.15565374  .00001478  00000+0  12679-3 0  99982 47934  97.5245 127.6844 0017423  57.3585 302.9317 14.98874231297722

JSON: /api/v1/satellites/47934 · /tle

For live sub-satellite position, see the globe view (requires WebGL).

§ Visibility from observer

Set your observer location to see the next 7 days of passes ≥ 10°. The values pass through the URL so the page stays shareable.

No JS? Fill the form by hand. The geolocation button needs JavaScript.

§ Radio — SatNOGS DB

ModeDescriptionDownlinkUplink
BPSK S-band telemetry 2.276 GHz
FM Telemetry 401.416 MHz

2 transmitters · refreshed weekly from db.satnogs.org